LKKB Weather Reports


time (UTC)temp
C
wind
direction
speed
KPH
gust
KPH
rain 1hr
cm
rain 24hr
cm
rain mn
cm
humidity
%
barometer
mb
20260504003103 13 60 11.3 0.0 0.00 0.00 0.00 54 1012.0
20260504001852 13 40 11.3 0.0 0.00 0.00 0.00 54
20260504000212 13 40 9.7 0.0 0.00 0.00 0.00 54 1013.0
20260503233102 15 50 11.3 0.0 0.00 0.00 0.00 51 1012.0
20260503231854 15 110 11.3 0.0 0.00 0.00 0.00 51
20260503230103 16 110 11.3 0.0 0.00 0.00 0.00 48 1012.0
20260503223103 17 100 9.7 0.0 0.00 0.00 0.00 45 1012.0
20260503221853 17 130 8.0 0.0 0.00 0.00 0.00 42
20260503220103 17 140 8.0 0.0 0.00 0.00 0.00 42 1012.0
20260503213102 17 170 14.5 0.0 0.00 0.00 0.00 42 1012.0
20260503211853 17 160 14.5 0.0 0.00 0.00 0.00 42
20260503210104 18 160 14.5 0.0 0.00 0.00 0.00 39 1012.0
20260503203103 18 150 12.9 0.0 0.00 0.00 0.00 39 1012.0
20260503201851 18 130 11.3 0.0 0.00 0.00 0.00 37
20260503193102 20 120 12.9 0.0 0.00 0.00 0.00 34 1012.0
20260503191850 20 120 14.5 0.0 0.00 0.00 0.00 34
20260503190210 20 120 14.5 0.0 0.00 0.00 0.00 34 1012.0
20260503183103 21 120 16.1 0.0 0.00 0.00 0.00 32 1012.0
20260503181853 21 120 14.5 0.0 0.00 0.00 0.00 32
20260503173103 23 130 16.1 0.0 0.00 0.00 0.00 27 1012.0
20260503171851 23 120 19.3 0.0 0.00 0.00 0.00 27
20260503170210 25 120 16.1 0.0 0.00 0.00 0.00 23 1012.0
20260503160104 26 130 14.5 0.0 0.00 0.00 0.00 22 1012.0
20260503150103 26 130 12.9 0.0 0.00 0.00 0.00 22 1012.0
20260503130210 25 130 12.9 0.0 0.00 0.00 0.00 22 1014.0
20260503100210 22 0 12.9 0.0 0.00 0.00 0.00 27 1016.0
20260503071849 17 60 8.0 0.0 0.00 0.00 0.00 42
20260503070103 17 60 8.0 0.0 0.00 0.00 0.00 42 1017.0
20260503060103 15 110 4.8 0.0 0.00 0.00 0.00 47 1017.0
20260503053103 12 100 1.6 0.0 0.00 0.00 0.00 58 1017.0
20260503051850 11 0 0.0 0.0 0.00 0.00 0.00 62
20260503043103 10 70 9.7 0.0 0.00 0.00 0.00 61 1017.0
20260503041851 7 50 8.0 0.0 0.00 0.00 0.00 65
20260503033210 8 50 4.8 0.0 0.00 0.00 0.00 66 1017.0
20260503031849 10 40 8.0 0.0 0.00 0.00 0.00 57
20260503030211 7 30 3.2 0.0 0.00 0.00 0.00 65 1017.0
20260503023102 8 100 4.8 0.0 0.00 0.00 0.00 61 1017.0
20260503021849 12 160 8.0 0.0 0.00 0.00 0.00 46
20260503013103 13 180 11.3 0.0 0.00 0.00 0.00 44 1017.0
20260503013003 13 180 11.3 0.0 0.00 0.00 0.00 44 1017.0
20260503011850 11 180 11.3 0.0 0.00 0.00 0.00 53